• In Austria
  • List of Countries
  • For 7 days
  • Water Temperature
  • Satellite Maps
  • Weather Map
  • News
  • Weather Widgets
  • user-avatar
    Login

    Hourly Weather Fier

    Today, 15 November, Thursday

    Time Temperature Precipitation Wind Pressure Humidity
    00:00 +13°C° 0 mm 3 mps 765 mmHg 67%
    01:00 +13°C° 0 mm 3 mps 765 mmHg 71%
    02:00 +12°C° 0 mm 3 mps 765 mmHg 72%
    03:00 +12°C° 0 mm 3 mps 765 mmHg 72%
    04:00 +11°C° 0 mm 3 mps 764 mmHg 73%
    05:00 +11°C° 0 mm 3 mps 764 mmHg 73%
    06:00 +11°C° 0 mm 3 mps 764 mmHg 73%
    07:00 +11°C° 0 mm 4 mps 765 mmHg 71%
    08:00 +13°C° 0 mm 4 mps 765 mmHg 62%
    09:00 +15°C° 0 mm 4 mps 765 mmHg 53%
    10:00 +18°C° 0 mm 4 mps 765 mmHg 44%
    11:00 +19°C° 0 mm 4 mps 764 mmHg 40%
    12:00 +19°C° 0 mm 4 mps 764 mmHg 36%
    13:00 +20°C° 0 mm 4 mps 764 mmHg 31%
    14:00 +19°C° 0 mm 4 mps 764 mmHg 34%
    15:00 +18°C° 0 mm 4 mps 763 mmHg 36%
    16:00 +17°C° 0 mm 4 mps 763 mmHg 38%
    17:00 +15°C° 0 mm 4 mps 764 mmHg 40%
    18:00 +14°C° 0 mm 4 mps 764 mmHg 41%
    19:00 +13°C° 0 mm 4 mps 764 mmHg 42%
    20:00 +12°C° 0 mm 4 mps 764 mmHg 44%
    21:00 +12°C° 0 mm 4 mps 764 mmHg 46%
    22:00 +11°C° 0 mm 4 mps 764 mmHg 48%
    23:00 +11°C° 0 mm 4 mps 764 mmHg 50%

    Tomorrow, 16 November, Friday

    Time Temperature Precipitation Wind Pressure Humidity
    00:00 +10°C° 0 mm 4 mps 764 mmHg 51%
    01:00 +10°C° 0 mm 4 mps 764 mmHg 53%
    02:00 +10°C° 0 mm 4 mps 764 mmHg 54%
    03:00 +8°C° 0 mm 4 mps 764 mmHg 55%
    04:00 +8°C° 0 mm 4 mps 764 mmHg 56%
    05:00 +8°C° 0.1 mm 4 mps 764 mmHg 57%
    06:00 +8°C° 0.1 mm 4 mps 764 mmHg 58%
    07:00 +8°C° 0.1 mm 4 mps 764 mmHg 59%
    08:00 +10°C° 0 mm 4 mps 764 mmHg 55%
    09:00 +12°C° 0 mm 4 mps 764 mmHg 52%
    10:00 +13°C° 0 mm 4 mps 764 mmHg 48%
    11:00 +14°C° 0.1 mm 4 mps 764 mmHg 49%
    12:00 +14°C° 0.1 mm 4 mps 764 mmHg 50%
    13:00 +14°C° 0.1 mm 3 mps 764 mmHg 50%
    14:00 +13°C° 0.4 mm 3 mps 764 mmHg 54%
    15:00 +13°C° 0.4 mm 3 mps 764 mmHg 58%
    16:00 +12°C° 0.4 mm 3 mps 764 mmHg 62%
    17:00 +12°C° 0.6 mm 3 mps 764 mmHg 64%
    18:00 +11°C° 0.6 mm 3 mps 764 mmHg 65%
    19:00 +11°C° 0.6 mm 4 mps 764 mmHg 67%
    20:00 +11°C° 0.4 mm 4 mps 764 mmHg 68%
    21:00 +9°C° 0.4 mm 5 mps 764 mmHg 68%
    22:00 +9°C° 0.4 mm 5 mps 764 mmHg 69%
    23:00 +9°C° 0.3 mm 5 mps 764 mmHg 69%

    Day after tomorrow, 17 November, Saturday

    Time Temperature Precipitation Wind Pressure Humidity
    00:00 +9°C° 0.3 mm 5 mps 764 mmHg 69%
    01:00 +8°C° 0.3 mm 4 mps 764 mmHg 69%
    02:00 +8°C° 0.4 mm 4 mps 764 mmHg 70%
    03:00 +8°C° 0.4 mm 4 mps 764 mmHg 71%
    04:00 +8°C° 0.4 mm 4 mps 763 mmHg 72%
    05:00 +8°C° 0.2 mm 4 mps 763 mmHg 72%
    06:00 +8°C° 0.2 mm 4 mps 763 mmHg 71%
    07:00 +10°C° 0.2 mm 4 mps 763 mmHg 71%
    08:00 +11°C° 0.1 mm 4 mps 763 mmHg 67%
    09:00 +12°C° 0.1 mm 4 mps 763 mmHg 62%
    10:00 +13°C° 0.1 mm 5 mps 764 mmHg 58%
    11:00 +13°C° 0 mm 5 mps 763 mmHg 57%
    12:00 +14°C° 0 mm 5 mps 763 mmHg 55%
    13:00 +14°C° 0 mm 5 mps 763 mmHg 54%
    14:00 +13°C° 0 mm 5 mps 763 mmHg 56%
    15:00 +13°C° 0 mm 4 mps 762 mmHg 57%
    16:00 +12°C° 0 mm 4 mps 762 mmHg 59%
    17:00 +11°C° 0 mm 4 mps 762 mmHg 61%
    18:00 +11°C° 0 mm 4 mps 762 mmHg 64%
    19:00 +9°C° 0 mm 5 mps 763 mmHg 66%
    20:00 +9°C° 0 mm 5 mps 763 mmHg 67%
    21:00 +8°C° 0 mm 5 mps 763 mmHg 67%
    22:00 +8°C° 0 mm 5 mps 763 mmHg 68%
    23:00 +8°C° 0 mm 5 mps 763 mmHg 67%

    18 November, Sunday

    Time Temperature Precipitation Wind Pressure Humidity
    00:00 +8°C° 0 mm 5 mps 763 mmHg 67%
    01:00 +8°C° 0 mm 5 mps 763 mmHg 66%
    02:00 +8°C° 0.1 mm 4 mps 762 mmHg 67%
    03:00 +8°C° 0.1 mm 4 mps 762 mmHg 67%
    04:00 +8°C° 0.1 mm 4 mps 762 mmHg 67%
    05:00 +8°C° 0.3 mm 4 mps 762 mmHg 68%
    06:00 +8°C° 0.3 mm 4 mps 762 mmHg 70%
    07:00 +8°C° 0.3 mm 4 mps 762 mmHg 71%
    08:00 +8°C° 0.8 mm 4 mps 761 mmHg 71%
    09:00 +9°C° 0.8 mm 5 mps 761 mmHg 71%
    10:00 +9°C° 0.8 mm 5 mps 761 mmHg 70%
    11:00 +11°C° 1.8 mm 4 mps 760 mmHg 72%
    12:00 +11°C° 1.8 mm 4 mps 760 mmHg 73%
    13:00 +11°C° 1.8 mm 4 mps 759 mmHg 74%
    14:00 +10°C° 2.5 mm 4 mps 759 mmHg 77%
    15:00 +10°C° 2.5 mm 4 mps 759 mmHg 80%
    16:00 +10°C° 2.5 mm 4 mps 758 mmHg 82%
    17:00 +10°C° 1.9 mm 4 mps 758 mmHg 83%
    18:00 +8°C° 1.9 mm 4 mps 758 mmHg 84%
    19:00 +8°C° 1.9 mm 4 mps 757 mmHg 85%
    20:00 +9°C° 0.3 mm 3 mps 757 mmHg 84%
    21:00 +10°C° 0.3 mm 3 mps 757 mmHg 83%
    22:00 +10°C° 0.3 mm 3 mps 757 mmHg 82%
    23:00 +10°C° 0.1 mm 3 mps 757 mmHg 82%

    19 November, Monday

    Time Temperature Precipitation Wind Pressure Humidity
    00:00 +10°C° 0.1 mm 3 mps 757 mmHg 83%
    01:00 +10°C° 0.1 mm 2 mps 756 mmHg 83%
    02:00 +10°C° 0 mm 2 mps 756 mmHg 83%
    03:00 +9°C° 0 mm 2 mps 756 mmHg 83%
    04:00 +9°C° 0 mm 2 mps 756 mmHg 83%
    05:00 +10°C° 0 mm 1 mps 756 mmHg 83%
    06:00 +10°C° 0 mm 1 mps 756 mmHg 82%
    07:00 +10°C° 0 mm 1 mps 756 mmHg 81%
    08:00 +12°C° 0 mm 1 mps 756 mmHg 77%
    09:00 +13°C° 0 mm 2 mps 757 mmHg 73%
    10:00 +15°C° 0 mm 2 mps 757 mmHg 69%
    11:00 +15°C° 0 mm 2 mps 757 mmHg 68%
    12:00 +16°C° 0 mm 2 mps 756 mmHg 67%
    13:00 +17°C° 0 mm 3 mps 756 mmHg 66%
    14:00 +16°C° 0 mm 3 mps 756 mmHg 70%
    15:00 +16°C° 0 mm 3 mps 756 mmHg 74%
    16:00 +14°C° 0 mm 3 mps 756 mmHg 78%
    17:00 +13°C° 0.2 mm 4 mps 757 mmHg 80%
    18:00 +13°C° 0.2 mm 5 mps 757 mmHg 83%
    19:00 +12°C° 0.2 mm 5 mps 757 mmHg 85%
    20:00 +11°C° 0.4 mm 6 mps 757 mmHg 84%
    21:00 +11°C° 0.4 mm 6 mps 757 mmHg 84%
    22:00 +11°C° 0.4 mm 6 mps 757 mmHg 84%
    23:00 +11°C° 0.5 mm 7 mps 757 mmHg 82%

    20 November, Tuesday

    Time Temperature Precipitation Wind Pressure Humidity
    00:00 +11°C° 0.5 mm 7 mps 756 mmHg 80%
    01:00 +11°C° 0.5 mm 8 mps 756 mmHg 79%
    02:00 +12°C° 1.1 mm 8 mps 756 mmHg 80%
    03:00 +12°C° 1.1 mm 8 mps 755 mmHg 80%
    04:00 +12°C° 1.1 mm 8 mps 755 mmHg 81%
    05:00 +12°C° 2 mm 8 mps 755 mmHg 82%
    06:00 +12°C° 2 mm 8 mps 754 mmHg 84%
    07:00 +12°C° 2 mm 8 mps 754 mmHg 85%
    08:00 +12°C° 1.4 mm 8 mps 754 mmHg 83%
    09:00 +13°C° 1.4 mm 9 mps 755 mmHg 80%
    10:00 +13°C° 1.4 mm 9 mps 755 mmHg 78%
    11:00 +15°C° 1.5 mm 9 mps 754 mmHg 78%
    12:00 +14°C° 1.5 mm 10 mps 754 mmHg 79%
    13:00 +16°C° 1.5 mm 10 mps 753 mmHg 79%
    14:00 +16°C° 1 mm 10 mps 753 mmHg 80%
    15:00 +16°C° 1 mm 10 mps 753 mmHg 81%
    16:00 +16°C° 1 mm 10 mps 753 mmHg 82%
    17:00 +16°C° 1.1 mm 10 mps 753 mmHg 83%
    18:00 +15°C° 1.1 mm 9 mps 753 mmHg 84%
    19:00 +15°C° 1.1 mm 9 mps 753 mmHg 85%
    20:00 +15°C° 0.9 mm 9 mps 753 mmHg 85%
    21:00 +15°C° 0.9 mm 8 mps 753 mmHg 86%
    22:00 +15°C° 0.9 mm 8 mps 753 mmHg 87%
    23:00 +15°C° 0.8 mm 7 mps 753 mmHg 87%
    Show more